NA5X-13 Weather Reports


time (UTC)temp
C
wind
direction
speed
KPH
gust
KPH
rain 1hr
cm
rain 24hr
cm
rain mn
cm
humidity
%
barometer
mb
20260506134533 15 23 3.2 11.3 0.00 0.00 0.00 91 1012.9
20260506133029 15 345 3.2 6.4 0.00 0.00 0.00 93 1013.0
20260506131537 16 323 3.2 6.4 0.00 0.00 0.00 93 1012.7
20260506130033 16 1 1.6 11.3 0.00 0.00 0.00 93 1012.4
20260506124550 16 330 3.2 8.0 0.00 0.00 0.00 93 1012.3
20260506123024 16 324 1.6 8.0 0.00 0.00 0.00 94 1012.0
20260506121546 16 330 3.2 11.3 0.00 0.00 0.00 94 1011.9
20260506120033 16 318 4.8 11.3 0.00 0.00 0.00 94 1011.6
20260506114531 17 323 3.2 8.0 0.00 0.00 0.00 94 1011.3
20260506113027 17 347 0.0 6.4 0.00 0.00 0.00 94 1011.4
20260506111524 17 326 0.0 6.4 0.00 0.00 0.00 93 1011.2
20260506110035 18 328 3.2 9.7 0.00 0.00 0.00 91 1010.9
20260506104530 18 345 4.8 11.3 0.00 0.00 0.00 90 1010.7
20260506103046 20 345 3.2 8.0 0.00 0.00 0.00 86 1010.4
20260506101522 20 315 0.0 8.0 0.00 0.00 0.00 84 1010.1
20260506100039 21 320 1.6 4.8 0.00 0.00 0.00 83 1009.9
20260506094557 21 269 0.0 3.2 0.00 0.00 0.00 83 1009.5
20260506093032 21 358 0.0 3.2 0.00 0.00 0.00 84 1009.4
20260506091529 22 325 1.6 6.4 0.00 0.00 0.00 84 1009.1
20260506090035 23 338 3.2 8.0 0.00 0.00 0.00 90 1009.0
20260506084532 24 160 3.2 8.0 0.00 0.00 0.00 91 1009.0
20260506083029 24 165 4.8 14.5 0.00 0.00 0.00 91 1008.8
20260506081526 24 153 4.8 8.0 0.00 0.00 0.00 91 1008.9
20260506073031 24 172 3.2 12.9 0.00 0.00 0.00 91 1009.0
20260506071542 24 220 3.2 9.7 0.00 0.00 0.00 91 1009.2
20260506061526 23 162 0.0 0.0 0.00 0.00 0.00 92 1009.1
20260506044539 24 193 1.6 4.8 0.00 0.00 0.00 89 1008.5
20260506043050 24 229 1.6 9.7 0.00 0.00 0.00 89 1008.4
20260506041546 25 129 4.8 11.3 0.00 0.00 0.00 88 1008.5
20260506040043 25 135 3.2 8.0 0.00 0.00 0.00 88 1008.4
20260506034534 25 187 3.2 6.4 0.00 0.00 0.00 87 1008.2
20260506033034 25 198 1.6 9.7 0.00 0.00 0.00 86 1007.9
20260506031531 25 152 4.8 9.7 0.00 0.00 0.00 86 1007.6
20260506030027 25 231 4.8 9.7 0.00 0.00 0.00 86 1007.1
20260506024524 25 172 4.8 16.1 0.00 0.00 0.00 85 1006.9
20260506023100 25 217 3.2 12.9 0.00 0.00 0.00 85 1006.7
20260506021534 25 197 4.8 11.3 0.00 0.00 0.00 84 1006.4
20260506020036 26 193 3.2 6.4 0.00 0.00 0.00 83 1006.5
20260506014532 26 207 3.2 12.9 0.00 0.00 0.00 83 1006.4
20260506013029 26 212 4.8 9.7 0.00 0.00 0.00 82 1006.2
20260506011525 26 234 3.2 9.7 0.00 0.00 0.00 81 1006.1
20260506010037 27 233 6.4 12.9 0.00 0.00 0.00 80 1006.1
20260506004534 27 160 4.8 14.5 0.00 0.00 0.00 79 1006.0
20260506003031 27 214 6.4 14.5 0.00 0.00 0.00 78 1005.9
20260506001522 28 185 8.0 16.1 0.00 0.00 0.00 77 1006.1
20260506000056 28 210 4.8 14.5 0.00 0.00 0.00 76 1006.1
20260505234528 28 200 8.0 16.1 0.00 0.00 0.00 76 1006.0
20260505233047 28 233 8.0 17.7 0.00 0.00 0.00 75 1005.9
20260505231535 28 147 8.0 17.7 0.00 0.00 0.00 75 1005.8
20260505230030 28 178 8.0 19.3 0.00 0.00 0.00 74 1005.7
20260505224527 28 143 9.7 19.3 0.00 0.00 0.00 75 1005.8
20260505223024 28 167 9.7 20.9 0.00 0.00 0.00 74 1005.7
20260505221535 28 195 8.0 17.7 0.00 0.00 0.00 73 1005.6
20260505220032 28 172 6.4 20.9 0.00 0.00 0.00 74 1005.7
20260505214522 29 162 8.0 19.3 0.00 0.00 0.00 72 1005.7
20260505213034 29 184 9.7 17.7 0.00 0.00 0.00 73 1006.0
20260505211531 29 226 4.8 22.5 0.00 0.00 0.00 72 1006.1
20260505210030 29 150 8.0 17.7 0.00 0.00 0.00 72 1006.2
20260505204526 29 184 8.0 17.7 0.00 0.00 0.00 72 1006.5
20260505203043 29 176 4.8 20.9 0.00 0.00 0.00 72 1006.6
20260505201540 29 217 8.0 17.7 0.00 0.00 0.00 72 1006.5
20260505200056 28 229 8.0 20.9 0.00 0.00 0.00 72 1006.6
20260505194531 29 175 8.0 16.1 0.00 0.00 0.00 72 1006.7
20260505193024 28 146 6.4 16.1 0.00 0.00 0.00 73 1007.1
20260505191607 28 253 9.7 20.9 0.00 0.00 0.00 73 1007.2
20260505190029 28 207 12.9 27.4 0.00 0.00 0.00 72 1007.0
20260505184549 28 153 9.7 19.3 0.00 0.00 0.00 73 1007.2
20260505183034 28 205 14.5 29.0 0.00 0.00 0.00 73 1007.4
20260505181530 28 197 9.7 22.5 0.00 0.00 0.00 74 1007.4
20260505180024 28 198 9.7 20.9 0.00 0.00 0.00 74 1007.5
20260505174536 27 197 6.4 20.9 0.00 0.00 0.00 75 1007.9
20260505173033 27 215 11.3 25.7 0.00 0.00 0.00 75 1008.2
20260505171528 27 191 9.7 19.3 0.00 0.00 0.00 76 1008.1
20260505170036 26 234 6.4 19.3 0.00 0.00 0.00 77 1008.1
20260505164532 26 156 6.4 20.9 0.00 0.00 0.00 77 1008.1
20260505163027 26 229 6.4 19.3 0.00 0.00 0.00 79 1008.2
20260505161524 25 181 8.0 22.5 0.00 0.00 0.00 80 1008.2
20260505153054 24 203 4.8 16.1 0.00 0.00 0.00 83 1008.3
20260505151529 23 257 9.7 24.1 0.00 0.00 0.00 84 1008.3